TimeCET,TemperatureF,Dew PointF,Humidity,Sea Level PressureIn,VisibilityMPH,Wind Direction,Wind SpeedMPH,Gust SpeedMPH,PrecipitationIn,Events,Conditions,WindDirDegrees,DateUTC
12:00 AM,48.2,46.4,93,29.98,6.2,NE,1.2,-,N/A,,Partly Cloudy,40,2013-03-21 23:00:00
12:30 AM,48.2,46.4,93,29.95,6.2,Variable,1.2,-,N/A,,Partly Cloudy,0,2013-03-21 23:30:00
1:00 AM,47,45,89,29.90,9,North,2.3,,,,Partly Cloudy,0,2013-03-22 00:00:00
1:00 AM,48.2,46.4,93,29.95,6.2,NNE,1.2,-,N/A,,Partly Cloudy,20,2013-03-22 00:00:00
1:30 AM,48.2,46.4,93,29.95,6.2,ENE,1.2,-,N/A,,Partly Cloudy,70,2013-03-22 00:30:00
2:00 AM,48.2,46.4,93,29.92,6.2,Variable,1.2,-,N/A,,Partly Cloudy,0,2013-03-22 01:00:00
2:30 AM,48.2,48.2,100,29.92,6.2,Calm,Calm,-,N/A,,Partly Cloudy,0,2013-03-22 01:30:00
3:00 AM,46.4,44.6,93,29.92,6.2,Calm,Calm,-,N/A,,Partly Cloudy,0,2013-03-22 02:00:00
3:30 AM,46.4,44.6,93,29.89,6.2,NNE,2.3,-,N/A,,Partly Cloudy,20,2013-03-22 02:30:00
3:31 AM,46.4,46.4,100,29.89,6.2,NNE,1.2,-,N/A,Fog,Patches of Fog,20,2013-03-22 02:31:00
3:41 AM,48.2,46.4,93,29.89,6.2,North,2.3,-,N/A,Fog,Patches of Fog,350,2013-03-22 02:41:00
4:00 AM,48.2,46.4,93,29.89,6.2,Variable,2.3,-,N/A,,Partly Cloudy,0,2013-03-22 03:00:00
5:00 AM,48.2,46.4,93,29.86,6.2,Calm,Calm,-,N/A,,Scattered Clouds,0,2013-03-22 04:00:00
5:30 AM,48.2,46.4,93,29.86,6.2,North,1.2,-,N/A,,Scattered Clouds,350,2013-03-22 04:30:00
6:00 AM,44.6,44.6,100,29.86,6.2,North,2.3,-,N/A,,Scattered Clouds,360,2013-03-22 05:00:00
6:30 AM,44.6,42.8,93,29.86,6.2,Calm,Calm,-,N/A,,Scattered Clouds,0,2013-03-22 05:30:00
6:40 AM,44.6,42.8,93,29.86,0.3,Variable,2.3,-,N/A,Fog,Fog,0,2013-03-22 05:40:00
7:00 AM,43,42,94,29.81,0,Calm,Calm,,,Fog,Partial Fog,,2013-03-22 06:00:00
7:00 AM,44.6,44.6,100,29.86,0.5,NE,2.3,-,N/A,Fog,Fog,40,2013-03-22 06:00:00
7:30 AM,44.6,44.6,100,29.86,1.1,Variable,1.2,-,N/A,Fog,Patches of Fog,0,2013-03-22 06:30:00
7:34 AM,46.4,44.6,93,29.86,0.5,Variable,1.2,-,N/A,Fog,Fog,0,2013-03-22 06:34:00
7:50 AM,46.4,46.4,100,29.86,0.1,NE,2.3,-,N/A,Fog,Fog,50,2013-03-22 06:50:00
8:00 AM,46.4,46.4,100,29.86,0.1,NE,3.5,-,N/A,Fog,Fog,50,2013-03-22 07:00:00
8:15 AM,48.2,48.2,100,29.86,0.5,Variable,1.2,-,N/A,Fog,Fog,0,2013-03-22 07:15:00
8:21 AM,48.2,48.2,100,29.86,1.0,Variable,1.2,-,N/A,Fog,Patches of Fog,0,2013-03-22 07:21:00
8:30 AM,50.0,48.2,94,29.86,3.7,Variable,1.2,-,N/A,Fog,Patches of Fog,0,2013-03-22 07:30:00
9:00 AM,53.6,51.8,94,29.83,6.2,Variable,1.2,-,N/A,,Partly Cloudy,0,2013-03-22 08:00:00
9:30 AM,53.6,53.6,100,29.83,6.2,Variable,1.2,-,N/A,,Partly Cloudy,0,2013-03-22 08:30:00
10:00 AM,57.2,55.4,94,29.83,6.2,Calm,Calm,-,N/A,,Partly Cloudy,0,2013-03-22 09:00:00
10:30 AM,57.2,51.8,82,29.83,6.2,Variable,1.2,-,N/A,,Partly Cloudy,0,2013-03-22 09:30:00
11:00 AM,62.6,53.6,72,29.83,6.2,WNW,1.2,-,N/A,,Partly Cloudy,290,2013-03-22 10:00:00
11:30 AM,64.4,53.6,68,29.83,6.2,Variable,2.3,-,N/A,,Partly Cloudy,0,2013-03-22 10:30:00
12:00 PM,66.2,51.8,60,29.80,-9999.0,Calm,Calm,-,N/A,,Clear,0,2013-03-22 11:00:00
1:00 PM,65,46,40,29.75,12,SW,10.4,,,,Partly Cloudy,230,2013-03-22 12:00:00
1:00 PM,64.4,48.2,56,29.80,-9999.0,SW,10.4,-,N/A,,Clear,230,2013-03-22 12:00:00
1:30 PM,64.4,50.0,59,29.80,6.2,SW,9.2,-,N/A,,Partly Cloudy,230,2013-03-22 12:30:00
2:00 PM,64.4,53.6,68,29.77,6.2,SW,11.5,-,N/A,,Partly Cloudy,230,2013-03-22 13:00:00
2:30 PM,62.6,53.6,72,29.77,6.2,SW,9.2,-,N/A,,Partly Cloudy,230,2013-03-22 13:30:00
3:00 PM,64.4,53.6,68,29.74,6.2,SW,9.2,-,N/A,,Partly Cloudy,230,2013-03-22 14:00:00
3:30 PM,64.4,53.6,68,29.74,6.2,WSW,9.2,-,N/A,,Partly Cloudy,240,2013-03-22 14:30:00
4:00 PM,60.8,53.6,77,29.74,6.2,SSW,11.5,-,N/A,,Partly Cloudy,210,2013-03-22 15:00:00
4:30 PM,62.6,55.4,77,29.74,6.2,WSW,8.1,-,N/A,,Partly Cloudy,240,2013-03-22 15:30:00
5:00 PM,62.6,55.4,77,29.74,6.2,WSW,5.8,-,N/A,,Partly Cloudy,250,2013-03-22 16:00:00
5:30 PM,62.6,53.6,72,29.74,6.2,SW,3.5,-,N/A,,Partly Cloudy,220,2013-03-22 16:30:00
6:00 PM,60.8,53.6,77,29.74,6.2,SW,8.1,-,N/A,,Partly Cloudy,220,2013-03-22 17:00:00
6:30 PM,59.0,53.6,82,29.74,6.2,SW,8.1,-,N/A,,Partly Cloudy,230,2013-03-22 17:30:00
7:00 PM,58,51,71,29.70,15,WSW,6.9,,,,Scattered Clouds,250,2013-03-22 18:00:00
7:00 PM,59.0,55.4,88,29.74,6.2,SW,5.8,-,N/A,,Partly Cloudy,230,2013-03-22 18:00:00
7:30 PM,59.0,55.4,88,29.74,6.2,SW,3.5,-,N/A,,Partly Cloudy,230,2013-03-22 18:30:00
8:00 PM,57.2,55.4,94,29.77,6.2,SW,4.6,-,N/A,,Partly Cloudy,230,2013-03-22 19:00:00
8:30 PM,57.2,55.4,94,29.77,5.0,SSW,2.3,-,N/A,,Partly Cloudy,210,2013-03-22 19:30:00
9:00 PM,57.2,55.4,94,29.77,5.0,WSW,1.2,-,N/A,,Partly Cloudy,240,2013-03-22 20:00:00
9:30 PM,57.2,55.4,94,29.77,5.0,SW,1.2,-,N/A,,Scattered Clouds,220,2013-03-22 20:30:00
10:00 PM,57.2,55.4,94,29.77,5.6,SW,2.3,-,N/A,,Scattered Clouds,230,2013-03-22 21:00:00
10:30 PM,57.2,55.4,94,29.77,5.6,Calm,Calm,-,N/A,,Scattered Clouds,0,2013-03-22 21:30:00
11:00 PM,57.2,55.4,94,29.74,5.6,Variable,1.2,-,N/A,,Scattered Clouds,0,2013-03-22 22:00:00
11:30 PM,55.4,53.6,94,29.74,6.2,Variable,1.2,-,N/A,,Scattered Clouds,0,2013-03-22 22:30:00